Location: Carr Mill
(33.2054°N, 85.9439°W)
Time: 20:49:28
(UTC+00:00)

STARLINK-2647 - Pass Details

Date: 24 June 2021
Orbit: 546 x 548 km, 53.1° (Epoch: 03 August)

Event Time Altitude Azimuth Distance (km) Brightness Sun altitude
Exits shadow 06:47:33 - 82° (E) 2,173 6.9 -31.5°
Enters shadow 07:47:42 -63° 226° (SW) 12,010 10.4 -26.4°
Maximum altitude 08:23:23 67° 315° (NW) 593 3.7 -22.1°
